Location: Unspecified
(50.7693°N, 0.0000°E)
Time: 17:14:45
(UTC+00:00)

A-11 Canister half - Pass Details

Date: 27 June 2019
Orbit: 1526 x 1683 km, 47.3° (Epoch: 17 July)

Event Time Altitude Azimuth Distance (km) Brightness Sun altitude
Rises 07:08:55 0° 275° (W) 4,719 11.0 28.1°
Reaches altitude 10° 07:12:00 10° 273° (W) 3,721 10.6 28.6°
Maximum altitude 07:21:14 67° 194° (SSW) 1,638 9.6 30.1°
Drops below altitude 10° 07:30:24 10° 115° (ESE) 3,698 12.2 31.5°
Sets 07:33:28 0° 113° (ESE) 4,688 12.5 32.0°
